Location: Songkhla
(7.2000°N, 100.6000°E)
Time: 20:50:29
(UTC+07:00)

Cosmos 2366 rocket - Pass Details

Date: 16 April 2026
Orbit: 954 x 996 km, 82.9° (Epoch: 20 May)

Event Time Altitude Azimuth Distance (km) Brightness Sun altitude
Rises 19:47:18 0° 174° (S) 3,673 6.8 -20.5°
Reaches altitude 10° 19:49:52 10° 170° (S) 2,719 6.1 -21.2°
Maximum altitude 19:55:57 57° 93° (E) 1,129 3.9 -22.6°
Drops below altitude 10° 20:01:57 10° 15° (NNE) 2,688 6.3 -24.1°
Sets 20:04:28 0° 12° (NNE) 3,628 7.0 -24.7°
